Weather in Dundalk

Ireland     54°00′14″N   6°23′08″W
temp.,
°C
wind,
m/s
gust,
m/s
humid.,
%
clouds,
%
prec.,
mm/h
press.,
hPa
HPBL,
m
9 may, sun
sun901:00+7s51295100 0.1 989457
04:00+7sse41089100 0.0 988376
07:00+9sse5129285 0.5 987827
10:00+10sse61388100 0.2 9871247
13:00+12s8138763 1.1 9861333
16:00+13s8148979 1.9 9861448
19:00+12s7138624 3.1 9861108
22:00+9sse5128949 0.1 987681
10 may, mon
mon1001:00+10sse5976100 0.1 987860
04:00+9se4986100 0.1 987543
07:00+8se499445 0.3 987400
10:00+10sse4890100 0.5 988808
13:00+12s588888 2.3 9881139
16:00+12sse5787100 2.7 989990
19:00+11sw2591100 4.4 990359
22:00+8ssw61294100 6.1 995938
11 may, tue
tue1101:00+6ssw61393100 6.6 998606
04:00+5s51391100 0.0 1000618
07:00+5se389185 0.0 1001260
10:00+10sse577431 0.0 1002970
13:00+11se78737 0.4 10031142
16:00+12se68650 0.1 1003989
19:00+10ese477614 0.1 1003542
22:00+6nne228797 0.0 100320
12 may, wed
wed1201:00+6n489269 0.6 1003267
04:00+7n379796 0.9 1003431
07:00+7n369794 1.0 1003347
10:00+8n3493100 0.1 1004426
13:00+11n238385 1.6 1004808
16:00+12n348297 1.1 1004807
19:00+11n349051 2.1 1005542
22:00+8n239580 0.7 100675
13 may, thu
thu1301:00+8nnw2598100 0.8 1006172
04:00+7nnw259899 0.1 1007169
07:00+8nnw249797 0.3 1007248
10:00+10nnw239280 0.2 1008457
13:00+11n238684 1.9 1008771
16:00+12ne228395 2.1 1009601
19:00+11e238983 4.1 1009360
22:00+7nnw239617 0.5 101171